This is the latest recevied weather packets stored in our database for station/object EW4881. If no packets are shown the sender has not sent any weather packets the latest 10 day(s).
| Time | Temp. | Humidity | Pressure | Rain* | Wind** | Luminosity | Snow |
|---|---|---|---|---|---|---|---|
| 1777832514 | 16.11° C | 35% | 980.6 hPa | 0 mm | - | 949 W/m² | - |
| 1777832454 | 16.11° C | 34% | 980.7 hPa | 0 mm | - | 949 W/m² | - |
| 1777832398 | 16.11° C | 34% | 980.7 hPa | 0 mm | - | 960 W/m² | - |
| 1777832330 | 16.11° C | 34% | 980.7 hPa | 0 mm | - | 960 W/m² | - |
| 1777832268 | 16.11° C | 35% | 980.8 hPa | 0 mm | - | 977 W/m² | - |
| 1777832207 | 16.11° C | 34% | 980.8 hPa | 0 mm | - | 1009 W/m² | - |
| 1777832147 | 16.11° C | 36% | 980.8 hPa | 0 mm | - | 891 W/m² | - |
| 1777832092 | 15.56° C | 36% | 980.8 hPa | 0 mm | - | 891 W/m² | - |
| 1777832021 | 15.56° C | 35% | 980.8 hPa | 0 mm | - | 891 W/m² | - |
| 1777831963 | 15.56° C | 35% | 980.8 hPa | 0 mm | - | 891 W/m² | - |
| 1777831902 | 15.56° C | 35% | 980.8 hPa | 0 mm | - | 979 W/m² | - |
| 1777831843 | 15.56° C | 35% | 980.8 hPa | 0 mm | - | 979 W/m² | - |
| 1777831786 | 15.56° C | 36% | 980.8 hPa | 0 mm | - | 979 W/m² | - |
| 1777831657 | 15.56° C | 35% | 980.7 hPa | 0 mm | - | 979 W/m² | - |
| 1777831598 | 15.56° C | 36% | 980.8 hPa | 0 mm | - | 979 W/m² | - |
| 1777831539 | 15.56° C | 35% | 980.8 hPa | 0 mm | - | 979 W/m² | - |
| 1777831481 | 15° C | 35% | 980.8 hPa | 0 mm | - | 998 W/m² | - |
| 1777831413 | 15° C | 36% | 981 hPa | 0 mm | - | 998 W/m² | - |
| 1777831350 | 15° C | 36% | 981 hPa | 0 mm | - | 1028 W/m² | - |
| 1777831291 | 15° C | 36% | 981.1 hPa | 0 mm | - | 1079 W/m² | - |
| 1777831231 | 15° C | 35% | 980.9 hPa | 0 mm | - | 1079 W/m² | - |
| 1777831175 | 15° C | 35% | 981 hPa | 0 mm | - | 264 W/m² | - |
| 1777831107 | 15.56° C | 36% | 981 hPa | 0 mm | - | 1172 W/m² | - |
| 1777831048 | 15.56° C | 36% | 981 hPa | 0 mm | - | 1172 W/m² | - |
| 1777830987 | 15.56° C | 36% | 981 hPa | 0 mm | - | 1172 W/m² | - |
* Rain latest hour (hover to see other rain measurements)
** Current wind speed in m/s (hover to see current wind gust speed)